Change the Weather History Date:

Tuesday, September 13, 2011

  Actual Average Record
Temperature  
Mean Temperature 56 °F 60 °F  
Max Temperature 73 °F 72 °F 94 °F (1927)
Min Temperature 38 °F 49 °F 27 °F (1923)
Degree Days  
Heating Degree Days 9 6  
Month to date heating degree days 25 58  
Since 1 July heating degree days 26 108  
Cooling Degree Days 0 2  
Month to date cooling degree days 45 31  
Year to date cooling degree days 644 536  
Growing Degree Days 8 (Base 50)    
Moisture  
Dew Point 38 °F    
Average Humidity 56    
Maximum Humidity 86    
Minimum Humidity 26    
Precipitation  
Precipitation 0.00 in 0.09 in 3.80 in (1889)
Month to date precipitation T 1.26  
Year to date precipitation 22.16 17.32  
Snow  
Snow 0.00 in 0.00 in 0.00 in ()
Month to date snowfall 0.0 0.0  
Since 1 July snowfall 0.0 0.0  
Since 1 September snowfall 0.0 0.0  
Snow Depth 0.00 in    
Sea Level Pressure  
Sea Level Pressure 30.06 in    
Wind  
Wind Speed 13 mph (WNW)    
Max Wind Speed 30 mph    
Max Gust Speed 38 mph    
Visibility 10 miles    
Events      
T = Trace of Precipitation, MM = Missing Value Source: NWS Daily Summary

Daily Weather History Graph

Daily Weather History Graph

Search for Another Location

Airport or City:

Trip Planner

Search our weather history database for the weather conditions in past years. The results will help you decide how hot, cold, wet, or windy it might be!

Date:

Astronomy

Sep. 13, 2011 Rise Set
Actual Time 7:02 AM CDT 7:43 PM CDT
Civil Twilight 6:31 AM CDT 8:14 PM CDT
Nautical Twilight 5:54 AM CDT 8:50 PM CDT
Astronomical Twilight 5:16 AM CDT 9:28 PM CDT
Moon 7:48 PM CDT (9/13) 8:26 AM CDT (9/13)
Length of Visible Light 13h 42m
Length of Day
12h 41m
Full, 98% of the Moon is Illuminated
Sep 13
Full
Sep 20
Last Quarter
Sep 27
New
Oct 3
First Quarter
Oct 11
Full

Hourly Weather History & Observations

Time (CDT) Temp. Windchill Dew Point Humidity Pressure Visibility Wind Dir Wind Speed Gust Speed Precip Events Conditions
12:53 AM 48.9 °F - 39.9 °F 71% 30.04 in 10.0 mi Calm Calm - N/A   Clear
1:53 AM 46.4 °F 45.2 °F 39.2 °F 76% 30.04 in 10.0 mi West 3.5 mph - N/A   Clear
2:53 AM 46.0 °F 44.8 °F 39.9 °F 79% 30.04 in 10.0 mi West 3.5 mph - N/A   Clear
3:53 AM 46.0 °F - 39.9 °F 79% 30.04 in 10.0 mi Calm Calm - N/A   Clear
4:53 AM 45.0 °F 43.5 °F 39.9 °F 82% 30.04 in 10.0 mi SW 3.5 mph - N/A   Scattered Clouds
5:53 AM 46.0 °F 43.9 °F 41.0 °F 83% 30.05 in 10.0 mi WSW 4.6 mph - N/A   Scattered Clouds
6:53 AM 45.0 °F - 39.9 °F 82% 30.05 in 10.0 mi Calm Calm - N/A   Clear
7:53 AM 46.9 °F - 42.1 °F 83% 30.05 in 10.0 mi WSW 6.9 mph - N/A   Clear
8:53 AM 52.0 °F - 44.1 °F 74% 30.06 in 10.0 mi WSW 10.4 mph - N/A   Clear
9:53 AM 60.1 °F - 44.1 °F 55% 30.04 in 10.0 mi West 13.8 mph - N/A   Clear
10:53 AM 66.9 °F - 42.1 °F 40% 30.03 in 10.0 mi West 15.0 mph - N/A   Clear
11:53 AM 69.1 °F - 39.9 °F 35% 30.02 in 10.0 mi West 18.4 mph 25.3 mph N/A   Clear
12:53 PM 71.1 °F - 37.0 °F 29% 30.00 in 10.0 mi WNW 23.0 mph 33.4 mph N/A   Partly Cloudy
1:53 PM 71.1 °F - 36.0 °F 28% 29.99 in 10.0 mi WNW 17.3 mph - N/A   Mostly Cloudy
2:53 PM 70.0 °F - 34.0 °F 27% 29.99 in 10.0 mi NW 19.6 mph 32.2 mph N/A   Mostly Cloudy
3:53 PM 69.1 °F - 35.1 °F 29% 29.99 in 10.0 mi NW 25.3 mph 32.2 mph N/A   Overcast
4:53 PM 68.0 °F - 39.0 °F 35% 30.01 in 10.0 mi NNW 25.3 mph 38.0 mph N/A   Mostly Cloudy
5:53 PM 64.9 °F - 37.0 °F 36% 30.04 in 10.0 mi NW 21.9 mph 29.9 mph N/A   Mostly Cloudy
6:53 PM 60.1 °F - 41.0 °F 49% 30.07 in 10.0 mi North 16.1 mph 25.3 mph N/A   Scattered Clouds
7:53 PM 55.9 °F - 37.0 °F 49% 30.11 in 10.0 mi North 20.7 mph 28.8 mph N/A   Partly Cloudy
8:53 PM 51.1 °F - 30.9 °F 46% 30.17 in 10.0 mi North 18.4 mph 29.9 mph N/A   Clear
9:53 PM 48.0 °F - 30.0 °F 50% 30.20 in 10.0 mi North 13.8 mph - N/A   Clear
10:53 PM 45.0 °F 39.3 °F 30.0 °F 56% 30.22 in 10.0 mi North 11.5 mph - N/A   Clear
11:53 PM 42.1 °F 37.1 °F 30.0 °F 62% 30.25 in 10.0 mi North 8.1 mph - N/A   Clear